| time (UTC) | temp F | wind direction | speed MPH | gust MPH | rain 1hr in | rain 24hr in | rain mn in | humidity % | barometer mb |
| 20260507192529 | 51 | 228 | 0.0 | 4.0 | 0.00 | 0.02 | 0.00 | 63 | 1012.1 |
| 20260507192011 | 51 | 228 | 0.0 | 4.0 | 0.00 | 0.02 | 0.00 | 64 | 1012.1 |
| 20260507191554 | 51 | 262 | 0.0 | 3.0 | 0.00 | 0.02 | 0.00 | 64 | 1012.2 |
| 20260507191034 | 50 | 262 | 0.0 | 5.0 | 0.00 | 0.02 | 0.00 | 64 | 1012.2 |
| 20260507190512 | 50 | 262 | 1.0 | 6.0 | 0.00 | 0.02 | 0.00 | 64 | 1012.2 |
| 20260507190057 | 50 | 262 | 3.0 | 6.0 | 0.00 | 0.02 | 0.00 | 64 | 1012.1 |
| 20260507185522 | 51 | 260 | 2.0 | 6.0 | 0.00 | 0.02 | 0.00 | 65 | 1012.0 |
| 20260507185101 | 51 | 258 | 1.0 | 6.0 | 0.00 | 0.02 | 0.00 | 66 | 1012.1 |
| 20260507184544 | 50 | 252 | 0.0 | 6.0 | 0.00 | 0.02 | 0.00 | 66 | 1012.2 |
| 20260507184020 | 50 | 244 | 1.0 | 8.0 | 0.00 | 0.02 | 0.00 | 66 | 1012.3 |
| 20260507183604 | 50 | 244 | 3.0 | 8.0 | 0.00 | 0.02 | 0.00 | 65 | 1012.3 |
| 20260507183045 | 50 | 238 | 0.0 | 8.0 | 0.00 | 0.02 | 0.00 | 65 | 1012.3 |
| 20260507182524 | 51 | 253 | 3.0 | 10.0 | 0.00 | 0.02 | 0.00 | 62 | 1012.5 |
| 20260507182004 | 51 | 237 | 1.0 | 6.0 | 0.00 | 0.02 | 0.00 | 57 | 1012.5 |
| 20260507181549 | 51 | 238 | 3.0 | 6.0 | 0.00 | 0.02 | 0.00 | 55 | 1012.4 |
| 20260507181027 | 51 | 300 | 1.0 | 6.0 | 0.00 | 0.02 | 0.00 | 55 | 1012.4 |
| 20260507180508 | 51 | 312 | 3.0 | 6.0 | 0.00 | 0.02 | 0.00 | 54 | 1012.4 |
| 20260507180053 | 51 | 312 | 0.0 | 6.0 | 0.00 | 0.02 | 0.00 | 54 | 1012.4 |
| 20260507175512 | 51 | 317 | 2.0 | 6.0 | 0.00 | 0.02 | 0.00 | 53 | 1012.3 |
| 20260507175052 | 52 | 327 | 0.0 | 6.0 | 0.00 | 0.02 | 0.00 | 54 | 1012.3 |
| 20260507174535 | 52 | 333 | 0.0 | 5.0 | 0.00 | 0.02 | 0.00 | 55 | 1012.3 |
| 20260507174012 | 52 | 334 | 0.0 | 5.0 | 0.00 | 0.02 | 0.00 | 57 | 1012.3 |
| 20260507173556 | 52 | 334 | 0.0 | 5.0 | 0.00 | 0.02 | 0.00 | 55 | 1012.3 |
| 20260507173044 | 52 | 342 | 0.0 | 7.0 | 0.00 | 0.02 | 0.00 | 53 | 1012.2 |
| 20260507172517 | 52 | 321 | 2.0 | 7.0 | 0.00 | 0.02 | 0.00 | 53 | 1012.2 |
| 20260507172100 | 52 | 302 | 0.0 | 6.0 | 0.00 | 0.02 | 0.00 | 54 | 1012.3 |
| 20260507171601 | 52 | 310 | 0.0 | 6.0 | 0.00 | 0.02 | 0.00 | 55 | 1012.4 |
| 20260507171020 | 52 | 23 | 0.0 | 6.0 | 0.00 | 0.02 | 0.00 | 55 | 1012.4 |
| 20260507170604 | 52 | 290 | 0.0 | 6.0 | 0.00 | 0.02 | 0.00 | 55 | 1012.5 |
| 20260507170026 | 53 | 58 | 2.0 | 8.0 | 0.00 | 0.02 | 0.00 | 53 | 1012.5 |
| 20260507165505 | 53 | 46 | 2.0 | 8.0 | 0.00 | 0.02 | 0.00 | 56 | 1012.6 |
| 20260507165049 | 52 | 285 | 2.0 | 6.0 | 0.00 | 0.02 | 0.00 | 58 | 1012.6 |
| 20260507164531 | 52 | 343 | 0.0 | 6.0 | 0.00 | 0.02 | 0.00 | 59 | 1012.7 |
| 20260507164009 | 51 | 344 | 1.0 | 6.0 | 0.00 | 0.02 | 0.00 | 59 | 1012.7 |
| 20260507163553 | 51 | 307 | 0.0 | 6.0 | 0.00 | 0.02 | 0.00 | 59 | 1012.8 |
| 20260507163033 | 51 | 329 | 1.0 | 6.0 | 0.00 | 0.02 | 0.00 | 61 | 1013.0 |
| 20260507162514 | 51 | 337 | 0.0 | 6.0 | 0.00 | 0.02 | 0.00 | 61 | 1012.9 |
| 20260507162057 | 51 | 340 | 1.0 | 6.0 | 0.00 | 0.02 | 0.00 | 62 | 1012.9 |
| 20260507161542 | 51 | 67 | 1.0 | 8.0 | 0.00 | 0.02 | 0.00 | 65 | 1012.9 |
| 20260507161017 | 51 | 61 | 1.0 | 8.0 | 0.00 | 0.02 | 0.00 | 63 | 1012.9 |
| 20260507160602 | 51 | 46 | 0.0 | 8.0 | 0.00 | 0.02 | 0.00 | 64 | 1013.1 |
| 20260507160042 | 51 | 339 | 0.0 | 4.0 | 0.00 | 0.02 | 0.00 | 65 | 1013.2 |
| 20260507155501 | 51 | 339 | 1.0 | 5.0 | 0.00 | 0.02 | 0.00 | 65 | 1013.3 |
| 20260507155047 | 51 | 340 | 1.0 | 5.0 | 0.00 | 0.02 | 0.00 | 65 | 1013.3 |
| 20260507154532 | 51 | 59 | 0.0 | 7.0 | 0.00 | 0.02 | 0.00 | 67 | 1013.3 |
| 20260507154004 | 51 | 70 | 1.0 | 7.0 | 0.00 | 0.02 | 0.00 | 67 | 1013.3 |
| 20260507153548 | 50 | 48 | 2.0 | 6.0 | 0.00 | 0.02 | 0.00 | 68 | 1013.3 |
| 20260507153028 | 50 | 277 | 0.0 | 8.0 | 0.00 | 0.02 | 0.00 | 67 | 1013.4 |
| 20260507152509 | 50 | 266 | 0.0 | 9.0 | 0.00 | 0.02 | 0.00 | 64 | 1013.4 |
| 20260507152052 | 50 | 266 | 4.0 | 9.0 | 0.00 | 0.02 | 0.00 | 63 | 1013.4 |
| 20260507151540 | 50 | 277 | 0.0 | 7.0 | 0.00 | 0.02 | 0.00 | 65 | 1013.4 |
| 20260507151013 | 50 | 291 | 1.0 | 7.0 | 0.00 | 0.02 | 0.00 | 63 | 1013.4 |
| 20260507150556 | 49 | 292 | 2.0 | 7.0 | 0.00 | 0.02 | 0.00 | 63 | 1013.4 |
| 20260507150037 | 49 | 321 | 0.0 | 5.0 | 0.00 | 0.02 | 0.00 | 66 | 1013.4 |
| 20260507145602 | 49 | 321 | 0.0 | 5.0 | 0.00 | 0.02 | 0.00 | 65 | 1013.4 |
| 20260507145041 | 49 | 321 | 1.0 | 5.0 | 0.00 | 0.02 | 0.00 | 67 | 1013.4 |
| 20260507144521 | 49 | 322 | 1.0 | 5.0 | 0.00 | 0.02 | 0.00 | 65 | 1013.3 |
| 20260507144105 | 48 | 322 | 2.0 | 5.0 | 0.00 | 0.02 | 0.00 | 66 | 1013.4 |
| 20260507143544 | 48 | 321 | 0.0 | 5.0 | 0.00 | 0.02 | 0.00 | 67 | 1013.5 |
| 20260507143025 | 48 | 321 | 2.0 | 5.0 | 0.00 | 0.02 | 0.00 | 67 | 1013.5 |
| 20260507142504 | 47 | 325 | 2.0 | 6.0 | 0.00 | 0.02 | 0.00 | 67 | 1013.5 |
| 20260507142046 | 47 | 325 | 2.0 | 6.0 | 0.00 | 0.02 | 0.00 | 68 | 1013.4 |
| 20260507141527 | 47 | 329 | 3.0 | 6.0 | 0.00 | 0.02 | 0.00 | 68 | 1013.5 |
| 20260507141012 | 47 | 341 | 0.0 | 4.0 | 0.00 | 0.04 | 0.00 | 67 | 1013.4 |
| 20260507140551 | 47 | 341 | 0.0 | 5.0 | 0.00 | 0.04 | 0.00 | 69 | 1013.6 |
| 20260507140031 | 47 | 342 | 1.0 | 4.0 | 0.00 | 0.04 | 0.00 | 69 | 1013.8 |
| 20260507135557 | 46 | 342 | 0.0 | 4.0 | 0.00 | 0.04 | 0.00 | 69 | 1013.8 |
| 20260507135037 | 46 | 342 | 0.0 | 4.0 | 0.00 | 0.04 | 0.00 | 71 | 1013.7 |
| 20260507134529 | 46 | 342 | 0.0 | 5.0 | 0.00 | 0.04 | 0.00 | 72 | 1013.7 |
| 20260507134103 | 46 | 342 | 1.0 | 5.0 | 0.00 | 0.04 | 0.00 | 72 | 1013.8 |
| 20260507133540 | 46 | 62 | 0.0 | 1.0 | 0.00 | 0.04 | 0.00 | 72 | 1013.9 |
| 20260507133021 | 45 | 62 | 0.0 | 2.0 | 0.00 | 0.04 | 0.00 | 72 | 1013.9 |
| 20260507132604 | 45 | 62 | 0.0 | 4.0 | 0.00 | 0.04 | 0.00 | 72 | 1014.0 |
| 20260507132044 | 45 | 63 | 2.0 | 4.0 | 0.00 | 0.04 | 0.00 | 72 | 1014.0 |
| 20260507131531 | 45 | 65 | 0.0 | 2.0 | 0.00 | 0.04 | 0.00 | 72 | 1013.9 |
| 20260507131003 | 44 | 65 | 0.0 | 2.0 | 0.00 | 0.05 | 0.00 | 73 | 1013.9 |
| 20260507130550 | 44 | 64 | 0.0 | 2.0 | 0.00 | 0.05 | 0.00 | 74 | 1013.9 |
| 20260507130009 | 44 | 64 | 0.0 | 2.0 | 0.00 | 0.05 | 0.00 | 73 | 1013.9 |
| 20260507125553 | 44 | 64 | 0.0 | 4.0 | 0.00 | 0.05 | 0.00 | 74 | 1013.9 |
| 20260507125032 | 44 | 64 | 0.0 | 4.0 | 0.00 | 0.05 | 0.00 | 74 | 1014.0 |
| 20260507124512 | 44 | 65 | 0.0 | 4.0 | 0.00 | 0.05 | 0.00 | 75 | 1014.0 |
| 20260507124100 | 43 | 65 | 0.0 | 5.0 | 0.00 | 0.05 | 0.00 | 76 | 1014.0 |
| 20260507123536 | 43 | 65 | 1.0 | 5.0 | 0.00 | 0.05 | 0.00 | 77 | 1013.9 |
| 20260507123020 | 43 | 65 | 1.0 | 5.0 | 0.00 | 0.05 | 0.00 | 78 | 1014.0 |
| 20260507122603 | 42 | 65 | 1.0 | 5.0 | 0.00 | 0.05 | 0.00 | 78 | 1013.9 |
| 20260507122043 | 42 | 64 | 0.0 | 3.0 | 0.00 | 0.05 | 0.00 | 82 | 1013.9 |
| 20260507121520 | 42 | 64 | 0.0 | 4.0 | 0.00 | 0.05 | 0.00 | 85 | 1013.9 |
| 20260507121104 | 41 | 64 | 0.0 | 4.0 | 0.00 | 0.06 | 0.00 | 86 | 1013.9 |
| 20260507120543 | 41 | 64 | 0.0 | 2.0 | 0.00 | 0.06 | 0.00 | 87 | 1014.0 |
| 20260507120006 | 40 | 64 | 0.0 | 0.0 | 0.00 | 0.06 | 0.00 | 87 | 1013.9 |
| 20260507115548 | 40 | 64 | 0.0 | 0.0 | 0.00 | 0.06 | 0.00 | 88 | 1014.0 |
| 20260507115028 | 40 | 64 | 0.0 | 0.0 | 0.00 | 0.06 | 0.00 | 88 | 1014.1 |
| 20260507114513 | 40 | 64 | 0.0 | 0.0 | 0.00 | 0.06 | 0.00 | 88 | 1014.1 |
| 20260507114054 | 40 | 64 | 0.0 | 0.0 | 0.00 | 0.06 | 0.00 | 88 | 1014.0 |
| 20260507113532 | 40 | 64 | 0.0 | 0.0 | 0.00 | 0.06 | 0.00 | 88 | 1013.9 |
| 20260507113012 | 40 | 64 | 0.0 | 2.0 | 0.00 | 0.06 | 0.00 | 89 | 1014.1 |
| 20260507112556 | 40 | 64 | 0.0 | 2.0 | 0.00 | 0.06 | 0.00 | 89 | 1014.0 |
| 20260507112036 | 39 | 64 | 0.0 | 0.0 | 0.00 | 0.06 | 0.00 | 89 | 1014.2 |
| 20260507111521 | 39 | 64 | 0.0 | 0.0 | 0.00 | 0.06 | 0.00 | 90 | 1014.2 |
| 20260507111059 | 39 | 64 | 0.0 | 1.0 | 0.00 | 0.08 | 0.00 | 91 | 1014.4 |
| 20260507110540 | 39 | 64 | 0.0 | 1.0 | 0.00 | 0.08 | 0.00 | 91 | 1014.5 |
| 20260507110001 | 39 | 64 | 0.0 | 4.0 | 0.00 | 0.08 | 0.00 | 92 | 1014.3 |
| 20260507105544 | 39 | 64 | 0.0 | 4.0 | 0.00 | 0.08 | 0.00 | 92 | 1014.3 |
| 20260507105025 | 40 | 65 | 0.0 | 0.0 | 0.00 | 0.08 | 0.00 | 93 | 1014.1 |
| 20260507104507 | 40 | 65 | 0.0 | 0.0 | 0.00 | 0.08 | 0.00 | 93 | 1014.0 |
| 20260507104050 | 40 | 65 | 0.0 | 1.0 | 0.00 | 0.08 | 0.00 | 93 | 1014.0 |
| 20260507103528 | 39 | 65 | 0.0 | 1.0 | 0.00 | 0.08 | 0.00 | 93 | 1014.1 |
| 20260507103009 | 39 | 65 | 0.0 | 0.0 | 0.00 | 0.08 | 0.00 | 93 | 1014.1 |
| 20260507102553 | 39 | 65 | 0.0 | 0.0 | 0.00 | 0.08 | 0.00 | 93 | 1013.9 |
| 20260507102033 | 39 | 65 | 0.0 | 0.0 | 0.00 | 0.08 | 0.00 | 93 | 1013.6 |
| 20260507101518 | 39 | 65 | 0.0 | 0.0 | 0.00 | 0.08 | 0.00 | 92 | 1013.5 |
| 20260507101056 | 39 | 65 | 0.0 | 0.0 | 0.00 | 0.11 | 0.00 | 92 | 1013.5 |
| 20260507100533 | 39 | 65 | 0.0 | 0.0 | 0.00 | 0.11 | 0.00 | 92 | 1013.5 |
| 20260507100118 | 39 | 65 | 0.0 | 0.0 | 0.00 | 0.11 | 0.00 | 92 | 1013.4 |
| 20260507095540 | 39 | 65 | 0.0 | 0.0 | 0.00 | 0.11 | 0.00 | 92 | 1013.3 |
| 20260507095020 | 39 | 65 | 0.0 | 0.0 | 0.00 | 0.11 | 0.00 | 93 | 1013.3 |
| 20260507094621 | 39 | 65 | 0.0 | 0.0 | 0.00 | 0.11 | 0.00 | 93 | 1013.3 |
| 20260507094044 | 39 | 65 | 0.0 | 0.0 | 0.00 | 0.11 | 0.00 | 92 | 1013.5 |
| 20260507093523 | 39 | 65 | 0.0 | 0.0 | 0.00 | 0.11 | 0.00 | 92 | 1013.6 |
| 20260507093003 | 39 | 65 | 0.0 | 0.0 | 0.00 | 0.11 | 0.00 | 92 | 1013.6 |
| 20260507092549 | 39 | 65 | 0.0 | 0.0 | 0.00 | 0.11 | 0.00 | 92 | 1013.6 |
| 20260507092026 | 39 | 65 | 0.0 | 0.0 | 0.00 | 0.11 | 0.00 | 92 | 1013.6 |
| 20260507091507 | 39 | 65 | 0.0 | 0.0 | 0.00 | 0.11 | 0.00 | 92 | 1013.6 |
| 20260507091055 | 39 | 65 | 0.0 | 0.0 | 0.00 | 0.15 | 0.00 | 92 | 1013.5 |
| 20260507090531 | 39 | 65 | 0.0 | 0.0 | 0.00 | 0.15 | 0.00 | 92 | 1013.5 |
| 20260507090116 | 39 | 65 | 0.0 | 0.0 | 0.00 | 0.15 | 0.00 | 92 | 1013.5 |
| 20260507085537 | 39 | 65 | 0.0 | 0.0 | 0.00 | 0.15 | 0.00 | 92 | 1013.6 |
| 20260507085016 | 39 | 65 | 0.0 | 0.0 | 0.00 | 0.15 | 0.00 | 92 | 1013.5 |
| 20260507084603 | 39 | 65 | 0.0 | 0.0 | 0.00 | 0.15 | 0.00 | 92 | 1013.3 |
| 20260507084040 | 40 | 65 | 0.0 | 0.0 | 0.00 | 0.15 | 0.00 | 92 | 1013.2 |
| 20260507083520 | 40 | 65 | 0.0 | 0.0 | 0.00 | 0.15 | 0.00 | 92 | 1013.3 |
| 20260507083104 | 40 | 65 | 0.0 | 0.0 | 0.00 | 0.15 | 0.00 | 92 | 1013.3 |
| 20260507082544 | 40 | 65 | 0.0 | 0.0 | 0.00 | 0.15 | 0.00 | 92 | 1013.5 |
| 20260507082027 | 39 | 65 | 0.0 | 0.0 | 0.00 | 0.15 | 0.00 | 92 | 1013.6 |
| 20260507081511 | 39 | 65 | 0.0 | 0.0 | 0.00 | 0.15 | 0.00 | 92 | 1013.6 |
| 20260507081048 | 39 | 65 | 0.0 | 0.0 | 0.00 | 0.20 | 0.00 | 92 | 1013.6 |
| 20260507080528 | 39 | 65 | 0.0 | 0.0 | 0.00 | 0.20 | 0.00 | 92 | 1013.6 |
| 20260507080111 | 39 | 65 | 0.0 | 0.0 | 0.00 | 0.20 | 0.00 | 92 | 1013.6 |
| 20260507075533 | 39 | 65 | 0.0 | 0.0 | 0.00 | 0.20 | 0.00 | 92 | 1013.5 |
| 20260507075013 | 39 | 65 | 0.0 | 0.0 | 0.00 | 0.20 | 0.00 | 92 | 1013.5 |
| 20260507074559 | 40 | 65 | 0.0 | 0.0 | 0.00 | 0.20 | 0.00 | 91 | 1013.5 |
| 20260507074037 | 40 | 65 | 0.0 | 0.0 | 0.00 | 0.20 | 0.00 | 91 | 1013.5 |
| 20260507073511 | 40 | 65 | 0.0 | 0.0 | 0.00 | 0.20 | 0.00 | 91 | 1013.4 |
| 20260507073059 | 40 | 65 | 0.0 | 0.0 | 0.00 | 0.20 | 0.00 | 91 | 1013.4 |
| 20260507072536 | 40 | 65 | 0.0 | 0.0 | 0.00 | 0.20 | 0.00 | 91 | 1013.3 |
| 20260507072014 | 40 | 65 | 0.0 | 0.0 | 0.00 | 0.20 | 0.00 | 91 | 1013.3 |
| 20260507071601 | 40 | 65 | 0.0 | 0.0 | 0.00 | 0.20 | 0.00 | 91 | 1013.4 |
| 20260507071039 | 40 | 65 | 0.0 | 0.0 | 0.00 | 0.26 | 0.00 | 91 | 1013.3 |
| 20260507070519 | 40 | 65 | 0.0 | 0.0 | 0.00 | 0.26 | 0.00 | 91 | 1013.3 |
| 20260507070109 | 40 | 65 | 0.0 | 0.0 | 0.00 | 0.26 | 0.00 | 91 | 1013.3 |
| 20260507065525 | 40 | 65 | 0.0 | 0.0 | 0.00 | 0.26 | 0.00 | 91 | 1013.3 |
| 20260507065004 | 40 | 65 | 0.0 | 0.0 | 0.00 | 0.26 | 0.00 | 91 | 1013.4 |
| 20260507064549 | 40 | 65 | 0.0 | 0.0 | 0.00 | 0.26 | 0.00 | 91 | 1013.4 |
| 20260507064030 | 41 | 65 | 0.0 | 0.0 | 0.00 | 0.26 | 0.00 | 91 | 1013.5 |
| 20260507063508 | 41 | 65 | 0.0 | 0.0 | 0.00 | 0.26 | 0.00 | 90 | 1013.5 |
| 20260507063054 | 41 | 65 | 0.0 | 0.0 | 0.00 | 0.26 | 0.00 | 90 | 1013.4 |
| 20260507062532 | 41 | 65 | 0.0 | 0.0 | 0.00 | 0.26 | 0.00 | 91 | 1013.5 |
| 20260507062013 | 41 | 65 | 0.0 | 0.0 | 0.00 | 0.26 | 0.00 | 90 | 1013.6 |
| 20260507061558 | 41 | 65 | 0.0 | 0.0 | 0.00 | 0.26 | 0.00 | 90 | 1013.7 |
| 20260507061036 | 41 | 65 | 0.0 | 0.0 | 0.00 | 0.28 | 0.00 | 90 | 1013.7 |
| 20260507060516 | 42 | 65 | 0.0 | 0.0 | 0.00 | 0.28 | 0.00 | 90 | 1013.7 |
| 20260507060111 | 42 | 65 | 0.0 | 0.0 | 0.00 | 0.28 | 0.00 | 90 | 1013.8 |
| 20260507055513 | 42 | 65 | 0.0 | 0.0 | 0.00 | 0.28 | 0.00 | 91 | 1013.8 |
| 20260507055057 | 42 | 65 | 0.0 | 0.0 | 0.00 | 0.28 | 0.00 | 91 | 1013.9 |
| 20260507054537 | 42 | 65 | 0.0 | 0.0 | 0.00 | 0.28 | 0.00 | 91 | 1013.7 |
| 20260507054017 | 42 | 65 | 0.0 | 0.0 | 0.00 | 0.28 | 0.00 | 91 | 1013.7 |
| 20260507053601 | 42 | 65 | 0.0 | 0.0 | 0.00 | 0.28 | 0.00 | 91 | 1013.7 |
| 20260507053049 | 42 | 65 | 0.0 | 0.0 | 0.00 | 0.28 | 0.00 | 91 | 1013.9 |
| 20260507052521 | 42 | 65 | 0.0 | 0.0 | 0.00 | 0.28 | 0.00 | 91 | 1014.0 |
| 20260507052003 | 41 | 65 | 0.0 | 0.0 | 0.00 | 0.28 | 0.00 | 91 | 1013.8 |
| 20260507051545 | 41 | 65 | 0.0 | 0.0 | 0.00 | 0.28 | 0.00 | 91 | 1013.7 |
| 20260507051023 | 41 | 65 | 0.0 | 0.0 | 0.00 | 0.31 | 0.00 | 91 | 1013.9 |
| 20260507050503 | 41 | 65 | 0.0 | 0.0 | 0.00 | 0.31 | 0.00 | 91 | 1013.9 |
| 20260507050047 | 41 | 65 | 0.0 | 0.0 | 0.00 | 0.31 | 0.00 | 91 | 1013.8 |
| 20260507045510 | 41 | 65 | 0.0 | 0.0 | 0.00 | 0.31 | 0.00 | 90 | 1014.0 |
| 20260507045054 | 41 | 65 | 0.0 | 0.0 | 0.00 | 0.31 | 0.00 | 90 | 1013.8 |
| 20260507044534 | 41 | 65 | 0.0 | 0.0 | 0.00 | 0.31 | 0.00 | 90 | 1014.0 |
| 20260507044013 | 41 | 65 | 0.0 | 0.0 | 0.00 | 0.31 | 0.00 | 90 | 1013.8 |
| 20260507043557 | 41 | 65 | 0.0 | 0.0 | 0.00 | 0.31 | 0.00 | 90 | 1014.1 |
| 20260507043038 | 41 | 65 | 0.0 | 0.0 | 0.00 | 0.31 | 0.00 | 90 | 1013.9 |
| 20260507042517 | 41 | 65 | 0.0 | 0.0 | 0.00 | 0.31 | 0.00 | 90 | 1014.1 |
| 20260507042100 | 41 | 65 | 0.0 | 0.0 | 0.00 | 0.31 | 0.00 | 90 | 1014.1 |
| 20260507041541 | 41 | 65 | 0.0 | 0.0 | 0.00 | 0.31 | 0.00 | 90 | 1014.0 |
| 20260507041021 | 41 | 65 | 0.0 | 0.0 | 0.00 | 0.32 | 0.31 | 90 | 1014.0 |
| 20260507040500 | 41 | 65 | 0.0 | 0.0 | 0.00 | 0.32 | 0.31 | 90 | 1014.0 |
| 20260507040044 | 42 | 65 | 0.0 | 0.0 | 0.00 | 0.32 | 0.31 | 90 | 1014.1 |
| 20260507035506 | 42 | 65 | 0.0 | 0.0 | 0.00 | 0.32 | 0.31 | 90 | 1013.8 |
| 20260507035051 | 42 | 65 | 0.0 | 0.0 | 0.00 | 0.32 | 0.31 | 90 | 1013.9 |
| 20260507034549 | 42 | 65 | 0.0 | 0.0 | 0.00 | 0.32 | 0.31 | 90 | 1013.8 |
| 20260507034011 | 42 | 65 | 0.0 | 0.0 | 0.00 | 0.32 | 0.31 | 89 | 1014.0 |
| 20260507033556 | 42 | 65 | 0.0 | 0.0 | 0.00 | 0.32 | 0.31 | 89 | 1014.1 |
| 20260507033041 | 42 | 65 | 0.0 | 0.0 | 0.00 | 0.32 | 0.31 | 89 | 1014.1 |
| 20260507032514 | 42 | 65 | 0.0 | 0.0 | 0.00 | 0.32 | 0.31 | 89 | 1014.0 |
| 20260507032057 | 42 | 65 | 0.0 | 0.0 | 0.00 | 0.32 | 0.31 | 89 | 1013.9 |
| 20260507031537 | 43 | 65 | 0.0 | 0.0 | 0.00 | 0.32 | 0.31 | 89 | 1014.0 |
| 20260507031018 | 43 | 65 | 0.0 | 0.0 | 0.00 | 0.35 | 0.31 | 89 | 1013.9 |
| 20260507030601 | 43 | 65 | 0.0 | 0.0 | 0.00 | 0.35 | 0.31 | 88 | 1013.9 |
| 20260507030041 | 43 | 65 | 0.0 | 0.0 | 0.00 | 0.35 | 0.31 | 88 | 1014.0 |
| 20260507025501 | 43 | 65 | 0.0 | 0.0 | 0.00 | 0.35 | 0.31 | 87 | 1014.0 |
| 20260507025045 | 43 | 65 | 0.0 | 0.0 | 0.00 | 0.35 | 0.31 | 87 | 1014.0 |
| 20260507024543 | 43 | 65 | 0.0 | 0.0 | 0.00 | 0.35 | 0.31 | 87 | 1013.9 |
| 20260507024005 | 43 | 65 | 0.0 | 0.0 | 0.00 | 0.35 | 0.31 | 87 | 1013.9 |
| 20260507023549 | 44 | 65 | 0.0 | 0.0 | 0.00 | 0.35 | 0.31 | 87 | 1013.8 |
| 20260507023030 | 44 | 65 | 0.0 | 0.0 | 0.00 | 0.35 | 0.31 | 87 | 1013.9 |
| 20260507022510 | 44 | 65 | 0.0 | 0.0 | 0.00 | 0.35 | 0.31 | 87 | 1013.7 |
| 20260507022054 | 44 | 65 | 0.0 | 0.0 | 0.00 | 0.35 | 0.31 | 88 | 1013.8 |
| 20260507021542 | 44 | 65 | 0.0 | 0.0 | 0.00 | 0.35 | 0.31 | 87 | 1013.7 |
| 20260507021013 | 44 | 65 | 0.0 | 0.0 | 0.00 | 0.42 | 0.31 | 87 | 1013.9 |
| 20260507020558 | 44 | 65 | 0.0 | 0.0 | 0.00 | 0.42 | 0.31 | 87 | 1014.0 |
| 20260507020038 | 44 | 65 | 0.0 | 0.0 | 0.00 | 0.42 | 0.31 | 87 | 1014.0 |
| 20260507015605 | 44 | 65 | 0.0 | 0.0 | 0.00 | 0.42 | 0.31 | 87 | 1014.1 |
| 20260507015043 | 44 | 65 | 0.0 | 0.0 | 0.00 | 0.42 | 0.31 | 88 | 1014.3 |
| 20260507014535 | 44 | 65 | 0.0 | 0.0 | 0.00 | 0.42 | 0.31 | 87 | 1014.4 |
| 20260507014004 | 44 | 65 | 0.0 | 0.0 | 0.00 | 0.42 | 0.31 | 87 | 1014.5 |
| 20260507013550 | 44 | 65 | 0.0 | 0.0 | 0.00 | 0.42 | 0.31 | 87 | 1014.5 |
| 20260507013027 | 44 | 65 | 0.0 | 0.0 | 0.00 | 0.42 | 0.31 | 86 | 1014.5 |
| 20260507012509 | 44 | 65 | 0.0 | 0.0 | 0.00 | 0.42 | 0.31 | 85 | 1014.3 |
| 20260507012053 | 44 | 65 | 0.0 | 0.0 | 0.00 | 0.42 | 0.31 | 85 | 1014.2 |
| 20260507011539 | 44 | 65 | 0.0 | 0.0 | 0.00 | 0.42 | 0.31 | 85 | 1014.2 |
| 20260507011011 | 44 | 65 | 0.0 | 0.0 | 0.00 | 0.51 | 0.31 | 85 | 1014.0 |
| 20260507010552 | 44 | 65 | 0.0 | 0.0 | 0.00 | 0.51 | 0.31 | 85 | 1013.9 |
| 20260507010033 | 44 | 65 | 0.0 | 0.0 | 0.00 | 0.51 | 0.31 | 84 | 1013.9 |
| 20260507005559 | 44 | 65 | 0.0 | 0.0 | 0.00 | 0.51 | 0.31 | 84 | 1013.8 |
| 20260507005041 | 44 | 65 | 0.0 | 0.0 | 0.00 | 0.51 | 0.31 | 84 | 1013.9 |
| 20260507004519 | 45 | 65 | 0.0 | 0.0 | 0.00 | 0.51 | 0.31 | 83 | 1013.6 |
| 20260507004104 | 45 | 65 | 0.0 | 0.0 | 0.00 | 0.51 | 0.31 | 83 | 1013.5 |
| 20260507003544 | 45 | 65 | 0.0 | 0.0 | 0.00 | 0.51 | 0.31 | 82 | 1013.4 |
| 20260507003023 | 45 | 65 | 0.0 | 0.0 | 0.00 | 0.51 | 0.31 | 82 | 1013.3 |
| 20260507002502 | 45 | 65 | 0.0 | 0.0 | 0.00 | 0.51 | 0.31 | 82 | 1013.3 |
| 20260507002046 | 45 | 65 | 0.0 | 0.0 | 0.00 | 0.51 | 0.31 | 81 | 1013.3 |
| 20260507001528 | 45 | 65 | 0.0 | 0.0 | 0.00 | 0.51 | 0.31 | 82 | 1013.3 |
| 20260507001006 | 45 | 65 | 0.0 | 0.0 | 0.00 | 0.59 | 0.31 | 81 | 1013.5 |
| 20260507000552 | 45 | 65 | 0.0 | 0.0 | 0.00 | 0.59 | 0.31 | 81 | 1013.4 |
| 20260507000031 | 45 | 65 | 0.0 | 0.0 | 0.00 | 0.59 | 0.31 | 81 | 1013.3 |
| 20260506235556 | 46 | 65 | 0.0 | 0.0 | 0.00 | 0.59 | 0.31 | 81 | 1013.3 |
| 20260506235035 | 46 | 65 | 0.0 | 0.0 | 0.00 | 0.59 | 0.31 | 82 | 1013.2 |
| 20260506234515 | 46 | 65 | 0.0 | 0.0 | 0.00 | 0.59 | 0.31 | 82 | 1013.1 |
| 20260506234102 | 46 | 65 | 0.0 | 0.0 | 0.00 | 0.59 | 0.31 | 82 | 1013.1 |
| 20260506233540 | 46 | 65 | 0.0 | 0.0 | 0.00 | 0.59 | 0.31 | 82 | 1013.1 |
| 20260506233020 | 46 | 65 | 0.0 | 0.0 | 0.00 | 0.59 | 0.31 | 82 | 1013.1 |
| 20260506232603 | 46 | 65 | 0.0 | 0.0 | 0.00 | 0.59 | 0.31 | 81 | 1013.4 |
| 20260506232044 | 46 | 65 | 0.0 | 0.0 | 0.00 | 0.59 | 0.31 | 81 | 1013.3 |
| 20260506231524 | 47 | 65 | 0.0 | 2.0 | 0.00 | 0.59 | 0.31 | 81 | 1013.1 |
| 20260506231005 | 47 | 65 | 0.0 | 5.0 | 0.00 | 0.67 | 0.31 | 82 | 1013.2 |
| 20260506230547 | 47 | 65 | 0.0 | 5.0 | 0.00 | 0.67 | 0.31 | 82 | 1013.1 |
| 20260506230013 | 47 | 67 | 0.0 | 0.0 | 0.00 | 0.67 | 0.31 | 82 | 1013.0 |
| 20260506225553 | 47 | 67 | 0.0 | 0.0 | 0.00 | 0.67 | 0.31 | 85 | 1013.0 |
| 20260506225037 | 46 | 67 | 0.0 | 0.0 | 0.00 | 0.67 | 0.31 | 86 | 1012.9 |
| 20260506224515 | 46 | 67 | 0.0 | 4.0 | 0.00 | 0.67 | 0.31 | 87 | 1012.8 |
| 20260506224058 | 46 | 67 | 0.0 | 4.0 | 0.00 | 0.67 | 0.31 | 87 | 1012.7 |
| 20260506223537 | 45 | 65 | 0.0 | 5.0 | 0.00 | 0.67 | 0.31 | 89 | 1012.7 |
| 20260506223010 | 45 | 65 | 0.0 | 4.0 | 0.00 | 0.67 | 0.31 | 90 | 1012.6 |
| 20260506222554 | 44 | 65 | 0.0 | 4.0 | 0.00 | 0.67 | 0.31 | 90 | 1012.6 |
| 20260506222037 | 44 | 66 | 0.0 | 4.0 | 0.00 | 0.67 | 0.31 | 90 | 1012.5 |
| 20260506221515 | 44 | 67 | 0.0 | 4.0 | 0.00 | 0.67 | 0.31 | 90 | 1012.5 |
| 20260506221058 | 43 | 67 | 0.0 | 6.0 | 0.00 | 0.80 | 0.31 | 90 | 1012.3 |
| 20260506220538 | 43 | 67 | 0.0 | 6.0 | 0.01 | 0.80 | 0.31 | 91 | 1012.3 |
| 20260506220122 | 43 | 50 | 0.0 | 5.0 | 0.01 | 0.80 | 0.31 | 91 | 1012.2 |
| 20260506215544 | 43 | 49 | 0.0 | 5.0 | 0.01 | 0.80 | 0.31 | 91 | 1012.2 |
| 20260506215024 | 43 | 49 | 0.0 | 5.0 | 0.01 | 0.80 | 0.31 | 92 | 1012.2 |
| 20260506214504 | 43 | 49 | 0.0 | 5.0 | 0.01 | 0.80 | 0.31 | 91 | 1012.3 |
| 20260506214049 | 43 | 49 | 2.0 | 5.0 | 0.01 | 0.80 | 0.31 | 91 | 1012.4 |
| 20260506213528 | 43 | 48 | 0.0 | 5.0 | 0.01 | 0.80 | 0.31 | 91 | 1012.3 |
| 20260506213009 | 43 | 48 | 0.0 | 4.0 | 0.01 | 0.80 | 0.31 | 91 | 1012.5 |
| 20260506212552 | 43 | 48 | 0.0 | 4.0 | 0.01 | 0.80 | 0.31 | 91 | 1012.5 |
| 20260506212032 | 43 | 48 | 0.0 | 7.0 | 0.01 | 0.80 | 0.31 | 91 | 1012.3 |
| 20260506211512 | 43 | 48 | 1.0 | 7.0 | 0.02 | 0.80 | 0.31 | 91 | 1012.3 |
| 20260506211056 | 43 | 40 | 0.0 | 1.0 | 0.02 | 0.84 | 0.31 | 91 | 1012.2 |
| 20260506210538 | 43 | 38 | 0.0 | 2.0 | 0.01 | 0.83 | 0.30 | 91 | 1012.1 |
| 20260506210122 | 43 | 38 | 0.0 | 8.0 | 0.01 | 0.83 | 0.30 | 91 | 1012.1 |
| 20260506205542 | 43 | 47 | 0.0 | 7.0 | 0.01 | 0.83 | 0.30 | 91 | 1012.1 |
| 20260506205022 | 43 | 48 | 0.0 | 7.0 | 0.01 | 0.83 | 0.30 | 91 | 1012.1 |
| 20260506204504 | 42 | 37 | 0.0 | 4.0 | 0.01 | 0.83 | 0.30 | 91 | 1012.0 |
| 20260506204050 | 42 | 37 | 0.0 | 5.0 | 0.01 | 0.83 | 0.30 | 90 | 1012.0 |
| 20260506203528 | 42 | 36 | 1.0 | 6.0 | 0.01 | 0.83 | 0.30 | 90 | 1012.0 |
| 20260506203012 | 42 | 266 | 1.0 | 6.0 | 0.01 | 0.83 | 0.30 | 90 | 1012.0 |
| 20260506202550 | 42 | 291 | 0.0 | 5.0 | 0.01 | 0.83 | 0.30 | 89 | 1012.0 |
| 20260506202030 | 43 | 305 | 0.0 | 5.0 | 0.00 | 0.82 | 0.28 | 88 | 1012.1 |
| 20260506201512 | 43 | 2 | 0.0 | 4.0 | 0.00 | 0.82 | 0.28 | 88 | 1012.0 |
| 20260506201057 | 43 | 2 | 0.0 | 6.0 | 0.00 | 0.82 | 0.28 | 87 | 1011.9 |
| 20260506200533 | 44 | 289 | 1.0 | 7.0 | 0.00 | 0.82 | 0.28 | 87 | 1011.9 |
| 20260506200118 | 45 | 25 | 1.0 | 8.0 | 0.00 | 0.82 | 0.28 | 86 | 1011.9 |
| 20260506195539 | 46 | 277 | 1.0 | 9.0 | 0.00 | 0.82 | 0.28 | 85 | 1011.8 |
| 20260506195020 | 47 | 304 | 0.0 | 7.0 | 0.00 | 0.82 | 0.28 | 85 | 1011.4 |
| 20260506194603 | 48 | 304 | 3.0 | 7.0 | 0.00 | 0.82 | 0.28 | 85 | 1011.3 |
| 20260506194042 | 49 | 266 | 1.0 | 9.0 | 0.00 | 0.82 | 0.28 | 85 | 1011.1 |
| 20260506193521 | 49 | 255 | 2.0 | 10.0 | 0.00 | 0.82 | 0.28 | 83 | 1010.9 |
| 20260506193001 | 50 | 142 | 1.0 | 10.0 | 0.00 | 0.82 | 0.28 | 83 | 1010.7 |